Torna al catalogo

STARLINK-31137

AttivoComunicazioniVLEO
NORAD 58686·PAYLOAD·🇺🇸 United States

Lanciato Dec 29, 2023 da Cape Canaveral Space Force Station

Loading…

Prossimi Passaggi (prossime 24 ore)

TLE

AggiornatoSource: CelesTrak SupGP

Epoca: Sep 14, 2026, 21:04 UTC

1 58686C 23211V   26257.87826389  .00007085  00000+0  25668-3 0  2571
2 58686  42.9997  96.9475 0001403 270.9325 221.2403 15.27567783    17

Traccia STARLINK-31137 in tempo reale con AllMySat

Download on the App Store